This is the latest recevied weather packets stored in our database for station/object BM2MWA-13. If no packets are shown the sender has not sent any weather packets the latest 10 day(s).
| Time | Temp. | Humidity | Pressure | Rain* | Wind** | Luminosity | Snow |
|---|---|---|---|---|---|---|---|
| 1787654223 | 26.67° C | 95% | 1003.6 hPa | 0.51 mm | - | - | - |
| 1787653623 | 26.67° C | 94% | 1003.5 hPa | 0.51 mm | - | - | - |
| 1787653023 | 26.67° C | 94% | 1003.3 hPa | 0.51 mm | - | - | - |
| 1787652423 | 26.67° C | 92% | 1003.2 hPa | 0.51 mm | - | - | - |
| 1787651823 | 26.67° C | 91% | 1003.1 hPa | 0.51 mm | - | - | - |
| 1787651224 | 26.67° C | 93% | 1002.9 hPa | 0 mm | - | - | - |
| 1787650623 | 26.67° C | 90% | 1002.9 hPa | 0.51 mm | - | - | - |
| 1787650023 | 26.67° C | 90% | 1002.9 hPa | 0.51 mm | - | - | - |
| 1787649423 | 26.67° C | 90% | 1002.7 hPa | 0.51 mm | - | - | - |
| 1787648824 | 26.67° C | 90% | 1002.7 hPa | 0.51 mm | - | - | - |
| 1787648224 | 26.67° C | 88% | 1002.6 hPa | 0.51 mm | - | - | - |
| 1787647623 | 27.22° C | 90% | 1002.6 hPa | 1.02 mm | - | - | - |
| 1787647024 | 27.22° C | 90% | 1002.6 hPa | 0.51 mm | - | - | - |
| 1787646429 | 27.22° C | 89% | 1002.6 hPa | 0.51 mm | - | - | - |
| 1787645823 | 27.78° C | 87% | 1002.5 hPa | 0.51 mm | - | - | - |
| 1787645223 | 27.78° C | 88% | 1002.5 hPa | 0.51 mm | - | - | - |
| 1787644623 | 27.78° C | 88% | 1002.6 hPa | 0.51 mm | - | - | - |
| 1787644024 | 27.78° C | 88% | 1002.5 hPa | 0 mm | - | - | - |
| 1787643423 | 27.78° C | 87% | 1002.5 hPa | 0 mm | - | - | - |
| 1787642823 | 27.78° C | 88% | 1002.5 hPa | 0 mm | - | - | - |
| 1787642223 | 28.33° C | 88% | 1002.5 hPa | 0 mm | - | - | - |
| 1787641625 | 27.78° C | 88% | 1002.5 hPa | 0 mm | - | - | - |
| 1787641024 | 27.78° C | 88% | 1002.5 hPa | 0 mm | - | - | - |
| 1787640424 | 27.78° C | 87% | 1002.5 hPa | 0 mm | - | - | - |
| 1787639823 | 27.78° C | 87% | 1002.5 hPa | 0 mm | - | - | - |
* Rain latest hour (hover to see other rain measurements)
** Current wind speed in m/s (hover to see current wind gust speed)